Volver al catálogo

PEGASUS DEB

ActivoPO
NORAD 24973·DEBRIS·🇺🇸 United States

Lanzado May 19, 1994 desde Vandenberg Space Force Base

Loading…

Próximos Pases (próximas 24 horas)

TLE

ActualizadoSource: Space-Track

Época: Sep 13, 2026, 12:35 UTC

1 24973U 94029ACF 26256.52486437  .00001537  00000-0  31586-3 0  9991
2 24973  82.0158 323.2312 0292441 240.3294 186.0243 14.36578891561528

Sigue PEGASUS DEB en tiempo real con AllMySat

Download on the App Store